TimeCDT,TemperatureF,Dew PointF,Humidity,Sea Level PressureIn,VisibilityMPH,Wind Direction,Wind SpeedMPH,Gust SpeedMPH,PrecipitationIn,Events,Conditions,WindDirDegrees,DateUTC
12:53 AM,54.0,48.9,83,30.01,10.0,Calm,Calm,-,N/A,,Clear,0,2013-10-21 05:53:00
1:53 AM,51.1,48.9,92,30.02,10.0,Calm,Calm,-,N/A,,Clear,0,2013-10-21 06:53:00
2:53 AM,51.1,48.0,89,30.03,10.0,Calm,Calm,-,N/A,,Clear,0,2013-10-21 07:53:00
3:53 AM,51.1,48.0,89,30.03,10.0,Calm,Calm,-,N/A,,Partly Cloudy,0,2013-10-21 08:53:00
4:53 AM,52.0,48.9,89,30.02,10.0,Calm,Calm,-,N/A,,Clear,0,2013-10-21 09:53:00
5:53 AM,50.0,48.0,93,30.03,9.0,Calm,Calm,-,N/A,,Clear,0,2013-10-21 10:53:00
6:53 AM,50.0,48.0,93,30.04,10.0,Calm,Calm,-,N/A,,Clear,0,2013-10-21 11:53:00
7:53 AM,54.0,50.0,86,30.04,10.0,Calm,Calm,-,N/A,,Clear,0,2013-10-21 12:53:00
8:53 AM,57.9,52.0,81,30.06,10.0,Calm,Calm,-,N/A,,Clear,0,2013-10-21 13:53:00
9:53 AM,63.0,54.0,72,30.06,10.0,East,3.5,-,N/A,,Clear,100,2013-10-21 14:53:00
10:53 AM,68.0,55.9,65,30.06,10.0,SSE,5.8,-,N/A,,Clear,160,2013-10-21 15:53:00
11:53 AM,69.1,57.0,65,30.06,10.0,Calm,Calm,-,N/A,,Clear,0,2013-10-21 16:53:00
12:53 PM,70.0,57.9,65,30.05,10.0,Variable,4.6,-,N/A,,Clear,0,2013-10-21 17:53:00
1:53 PM,70.0,57.9,65,30.04,10.0,Variable,3.5,-,N/A,,Clear,0,2013-10-21 18:53:00
2:53 PM,71.1,57.9,63,30.01,10.0,Calm,Calm,-,N/A,,Partly Cloudy,0,2013-10-21 19:53:00
3:53 PM,70.0,59.0,68,30.00,10.0,SE,3.5,-,N/A,,Mostly Cloudy,130,2013-10-21 20:53:00
4:53 PM,69.1,60.1,73,29.99,10.0,SSE,4.6,-,N/A,,Mostly Cloudy,160,2013-10-21 21:53:00
5:53 PM,66.9,61.0,81,29.99,10.0,North,5.8,-,N/A,,Partly Cloudy,350,2013-10-21 22:53:00
6:53 PM,66.0,61.0,84,29.97,10.0,East,3.5,-,N/A,,Scattered Clouds,100,2013-10-21 23:53:00
7:53 PM,64.0,60.1,87,29.99,10.0,Calm,Calm,-,N/A,,Clear,0,2013-10-22 00:53:00
8:53 PM,62.1,59.0,90,30.00,8.0,North,3.5,-,N/A,,Clear,360,2013-10-22 01:53:00
9:53 PM,62.1,60.1,93,29.99,5.0,Calm,Calm,-,N/A,,Overcast,0,2013-10-22 02:53:00
10:53 PM,63.0,60.1,90,30.01,8.0,Calm,Calm,-,N/A,,Overcast,0,2013-10-22 03:53:00
11:53 PM,62.1,60.1,93,29.99,7.0,Calm,Calm,-,N/A,,Overcast,0,2013-10-22 04:53:00